| time (UTC) | temp C | wind direction | speed KPH | gust KPH | rain 1hr cm | rain 24hr cm | rain mn cm | humidity % | barometer mb |
| 20260505064230 | 11 | 223 | 9.7 | 20.9 | 0.00 | 0.00 | 0.00 | 68 | 1006.2 |
| 20260505063227 | 11 | 201 | 9.7 | 19.3 | 0.00 | 0.00 | 0.00 | 67 | 1006.2 |
| 20260505062209 | 11 | 201 | 11.3 | 20.9 | 0.00 | 0.00 | 0.00 | 67 | 1006.0 |
| 20260505061151 | 11 | 211 | 11.3 | 20.9 | 0.00 | 0.00 | 0.00 | 67 | 1005.7 |
| 20260505060149 | 11 | 202 | 11.3 | 25.7 | 0.00 | 0.00 | 0.00 | 66 | 1005.4 |
| 20260505055118 | 11 | 213 | 17.7 | 27.4 | 0.00 | 0.00 | 0.00 | 65 | 1005.4 |
| 20260505054122 | 11 | 253 | 14.5 | 27.4 | 0.00 | 0.00 | 0.00 | 64 | 1005.9 |
| 20260505053142 | 11 | 221 | 11.3 | 27.4 | 0.00 | 0.00 | 0.00 | 63 | 1006.3 |
| 20260505052135 | 12 | 201 | 17.7 | 35.4 | 0.00 | 0.00 | 0.00 | 63 | 1006.7 |
| 20260505040937 | 12 | 4 | 17.7 | 32.2 | 0.00 | 0.00 | 0.00 | 58 | 1006.5 |
| 20260505035956 | 13 | 223 | 20.9 | 38.6 | 0.00 | 0.00 | 0.00 | 55 | 1006.5 |
| 20260505033815 | 13 | 194 | 20.9 | 37.0 | 0.00 | 0.00 | 0.00 | 54 | 1006.5 |
| 20260505032810 | 13 | 203 | 20.9 | 35.4 | 0.00 | 0.00 | 0.00 | 53 | 1006.7 |
| 20260505031831 | 13 | 199 | 20.9 | 35.4 | 0.00 | 0.00 | 0.00 | 52 | 1006.8 |
| 20260505030758 | 13 | 4 | 22.5 | 37.0 | 0.00 | 0.00 | 0.00 | 50 | 1006.7 |
| 20260505025732 | 13 | 202 | 27.4 | 43.5 | 0.00 | 0.00 | 0.00 | 49 | 1006.4 |
| 20260505024751 | 13 | 230 | 25.7 | 43.5 | 0.00 | 0.00 | 0.00 | 47 | 1006.0 |
| 20260505023751 | 14 | 179 | 22.5 | 48.3 | 0.00 | 0.00 | 0.00 | 44 | 1005.9 |
| 20260505022725 | 15 | 237 | 27.4 | 48.3 | 0.00 | 0.00 | 0.00 | 40 | 1005.7 |
| 20260505021654 | 16 | 212 | 25.7 | 41.8 | 0.00 | 0.00 | 0.00 | 35 | 1005.9 |
| 20260505014416 | 17 | 213 | 19.3 | 32.2 | 0.00 | 0.00 | 0.00 | 31 | 1005.4 |
| 20260505013426 | 17 | 192 | 17.7 | 35.4 | 0.00 | 0.00 | 0.00 | 30 | 1005.2 |
| 20260505011238 | 17 | 174 | 22.5 | 45.1 | 0.00 | 0.00 | 0.00 | 28 | 1005.0 |
| 20260505010207 | 18 | 203 | 24.1 | 49.9 | 0.00 | 0.00 | 0.00 | 26 | 1004.7 |
| 20260505005209 | 18 | 175 | 24.1 | 49.9 | 0.00 | 0.00 | 0.00 | 25 | 1004.6 |
| 20260505003116 | 19 | 186 | 24.1 | 45.1 | 0.00 | 0.00 | 0.00 | 22 | 1004.5 |
| 20260505002116 | 20 | 163 | 20.9 | 32.2 | 0.00 | 0.00 | 0.00 | 20 | 1004.3 |
| 20260505001053 | 20 | 173 | 24.1 | 45.1 | 0.00 | 0.00 | 0.00 | 20 | 1004.3 |
| 20260505000116 | 20 | 173 | 20.9 | 45.1 | 0.00 | 0.00 | 0.00 | 20 | 1004.4 |
| 20260504235126 | 20 | 214 | 22.5 | 43.5 | 0.00 | 0.00 | 0.00 | 21 | 1004.6 |
| 20260504234102 | 20 | 154 | 22.5 | 33.8 | 0.00 | 0.00 | 0.00 | 20 | 1004.7 |
| 20260504233109 | 20 | 205 | 20.9 | 40.2 | 0.00 | 0.00 | 0.00 | 19 | 1004.8 |
| 20260504232118 | 20 | 211 | 25.7 | 40.2 | 0.00 | 0.00 | 0.00 | 20 | 1004.8 |
| 20260504230036 | 21 | 154 | 20.9 | 37.0 | 0.00 | 0.00 | 0.00 | 19 | 1004.7 |
| 20260504225054 | 21 | 204 | 20.9 | 38.6 | 0.00 | 0.00 | 0.00 | 20 | 1004.8 |
| 20260504224035 | 21 | 4 | 22.5 | 38.6 | 0.00 | 0.00 | 0.00 | 19 | 1004.9 |
| 20260504223058 | 22 | 194 | 20.9 | 37.0 | 0.00 | 0.00 | 0.00 | 19 | 1005.1 |
| 20260504222121 | 21 | 167 | 17.7 | 37.0 | 0.00 | 0.00 | 0.00 | 20 | 1005.1 |
| 20260504221052 | 21 | 173 | 19.3 | 35.4 | 0.00 | 0.00 | 0.00 | 21 | 1005.3 |
| 20260504214914 | 21 | 223 | 20.9 | 40.2 | 0.00 | 0.00 | 0.00 | 20 | 1005.4 |
| 20260504213843 | 21 | 194 | 20.9 | 40.2 | 0.00 | 0.00 | 0.00 | 19 | 1005.7 |
| 20260504212840 | 21 | 4 | 19.3 | 38.6 | 0.00 | 0.00 | 0.00 | 21 | 1005.9 |
| 20260504210719 | 21 | 4 | 19.3 | 37.0 | 0.00 | 0.00 | 0.00 | 22 | 1006.1 |
| 20260504205718 | 21 | 179 | 17.7 | 43.5 | 0.00 | 0.00 | 0.00 | 22 | 1006.6 |
| 20260504204659 | 21 | 212 | 20.9 | 43.5 | 0.00 | 0.00 | 0.00 | 22 | 1006.7 |
| 20260504203646 | 21 | 222 | 22.5 | 37.0 | 0.00 | 0.00 | 0.00 | 22 | 1006.9 |
| 20260504201502 | 21 | 195 | 22.5 | 43.5 | 0.00 | 0.00 | 0.00 | 20 | 1006.9 |
| 20260504200437 | 21 | 180 | 17.7 | 41.8 | 0.00 | 0.00 | 0.00 | 21 | 1007.0 |
| 20260504195406 | 20 | 188 | 24.1 | 41.8 | 0.00 | 0.00 | 0.00 | 22 | 1007.2 |
| 20260504194416 | 20 | 195 | 22.5 | 37.0 | 0.00 | 0.00 | 0.00 | 21 | 1006.9 |
| 20260504193415 | 21 | 200 | 19.3 | 37.0 | 0.00 | 0.00 | 0.00 | 21 | 1007.1 |
| 20260504192419 | 20 | 171 | 20.9 | 30.6 | 0.00 | 0.00 | 0.00 | 22 | 1006.9 |
| 20260504191443 | 20 | 239 | 22.5 | 41.8 | 0.00 | 0.00 | 0.00 | 22 | 1007.0 |
| 20260504190425 | 20 | 222 | 24.1 | 41.8 | 0.00 | 0.00 | 0.00 | 20 | 1007.2 |
| 20260504185405 | 20 | 229 | 24.1 | 43.5 | 0.00 | 0.00 | 0.00 | 21 | 1007.3 |
| 20260504182050 | 20 | 222 | 20.9 | 38.6 | 0.00 | 0.00 | 0.00 | 22 | 1007.3 |
| 20260504181056 | 20 | 244 | 17.7 | 32.2 | 0.00 | 0.00 | 0.00 | 24 | 1007.2 |
| 20260504180104 | 19 | 176 | 19.3 | 32.2 | 0.00 | 0.00 | 0.00 | 24 | 1007.5 |
| 20260504175118 | 19 | 188 | 17.7 | 30.6 | 0.00 | 0.00 | 0.00 | 27 | 1007.5 |
| 20260504174117 | 19 | 175 | 17.7 | 33.8 | 0.00 | 0.00 | 0.00 | 28 | 1007.5 |
| 20260504173128 | 18 | 161 | 17.7 | 33.8 | 0.00 | 0.00 | 0.00 | 30 | 1007.8 |
| 20260504172135 | 18 | 180 | 17.7 | 32.2 | 0.00 | 0.00 | 0.00 | 32 | 1007.9 |
| 20260504171140 | 18 | 173 | 16.1 | 32.2 | 0.00 | 0.00 | 0.00 | 31 | 1008.2 |
| 20260504140656 | 15 | 203 | 8.0 | 17.7 | 0.00 | 0.00 | 0.00 | 40 | 1008.2 |
| 20260504130527 | 12 | 250 | 6.4 | 20.9 | 0.00 | 0.00 | 0.00 | 43 | 1007.5 |
| 20260504110313 | 12 | 242 | 4.8 | 12.9 | 0.00 | 0.00 | 0.00 | 39 | 1007.7 |